Location: Dumpton Point
(51.3500°N, 1.4433°E)
Time: 12:51:43
(UTC+00:00)

Envisat - Pass Details

Date: 16 December 2021
Orbit: 764 x 766 km, 98.2° (Epoch: 23 January)

Event Time Altitude Azimuth Distance (km) Brightness Sun altitude
Rises 04:43:16 0° 17° (NNE) 3,246 6.4 -28.3°
Reaches altitude 10° 04:45:38 10° 21° (NNE) 2,315 5.7 -27.9°
Maximum altitude 04:50:40 58° 101° (E) 895 3.5 -27.1°
Drops below altitude 10° 04:55:39 10° 180° (S) 2,297 5.5 -26.3°
Sets 04:57:59 0° 184° (S) 3,218 6.3 -26.0°
